| time (UTC) | temp F | wind direction | speed MPH | gust MPH | rain 1hr in | rain 24hr in | rain mn in | humidity % | barometer mb |
| 20260506044615 | 49 | 205 | 4.0 | 9.0 | 0.00 | 0.05 | 0.05 | 63 | 1004.0 |
| 20260506043051 | 49 | 220 | 4.0 | 9.0 | 0.00 | 0.05 | 0.05 | 63 | 1004.0 |
| 20260506041547 | 49 | 190 | 5.0 | 9.0 | 0.00 | 0.05 | 0.05 | 64 | 1004.0 |
| 20260506040036 | 49 | 205 | 3.0 | 7.0 | 0.00 | 0.05 | 0.05 | 63 | 1004.0 |
| 20260506034527 | 50 | 198 | 3.0 | 7.0 | 0.00 | 0.05 | 0.05 | 62 | 1003.9 |
| 20260506033018 | 50 | 208 | 3.0 | 9.0 | 0.00 | 0.05 | 0.05 | 61 | 1003.8 |
| 20260506031510 | 51 | 204 | 4.0 | 8.0 | 0.00 | 0.05 | 0.05 | 59 | 1003.5 |
| 20260506030018 | 52 | 185 | 4.0 | 9.0 | 0.00 | 0.05 | 0.05 | 57 | 1003.3 |
| 20260506024603 | 53 | 183 | 6.0 | 10.0 | 0.00 | 0.05 | 0.05 | 56 | 1003.1 |
| 20260506023055 | 54 | 180 | 8.0 | 12.0 | 0.00 | 0.05 | 0.05 | 54 | 1002.9 |
| 20260506021543 | 55 | 155 | 6.0 | 11.0 | 0.00 | 0.05 | 0.05 | 53 | 1002.8 |
| 20260506020035 | 56 | 148 | 7.0 | 13.0 | 0.00 | 0.05 | 0.05 | 51 | 1002.7 |
| 20260506014537 | 58 | 169 | 9.0 | 12.0 | 0.00 | 0.05 | 0.05 | 50 | 1002.7 |
| 20260506013035 | 59 | 174 | 8.0 | 13.0 | 0.00 | 0.05 | 0.05 | 48 | 1002.7 |
| 20260506011525 | 59 | 190 | 4.0 | 10.0 | 0.00 | 0.05 | 0.05 | 48 | 1002.7 |
| 20260506010019 | 59 | 184 | 6.0 | 13.0 | 0.00 | 0.05 | 0.05 | 48 | 1002.6 |
| 20260506004518 | 60 | 180 | 6.0 | 14.0 | 0.00 | 0.05 | 0.05 | 48 | 1002.7 |
| 20260506003039 | 60 | 137 | 5.0 | 10.0 | 0.00 | 0.05 | 0.05 | 47 | 1002.7 |
| 20260506001533 | 60 | 186 | 8.0 | 16.0 | 0.00 | 0.05 | 0.05 | 48 | 1002.6 |
| 20260506000027 | 60 | 134 | 5.0 | 8.0 | 0.00 | 0.05 | 0.05 | 49 | 1002.7 |
| 20260505234527 | 60 | 184 | 7.0 | 12.0 | 0.00 | 0.05 | 0.05 | 49 | 1002.7 |
| 20260505233010 | 60 | 167 | 8.0 | 12.0 | 0.00 | 0.05 | 0.05 | 49 | 1002.6 |
| 20260505231605 | 59 | 124 | 4.0 | 13.0 | 0.00 | 0.05 | 0.05 | 51 | 1002.7 |
| 20260505224548 | 56 | 132 | 6.0 | 12.0 | 0.00 | 0.05 | 0.05 | 57 | 1002.9 |
| 20260505223036 | 55 | 132 | 5.0 | 11.0 | 0.00 | 0.05 | 0.05 | 61 | 1003.1 |
| 20260505221537 | 54 | 166 | 7.0 | 12.0 | 0.00 | 0.05 | 0.05 | 60 | 1003.2 |
| 20260505220032 | 54 | 146 | 2.0 | 8.0 | 0.00 | 0.05 | 0.05 | 62 | 1003.5 |
| 20260505214521 | 55 | 121 | 1.0 | 4.0 | 0.00 | 0.05 | 0.05 | 56 | 1003.7 |
| 20260505213011 | 55 | 125 | 0.0 | 4.0 | 0.00 | 0.05 | 0.05 | 55 | 1003.6 |
| 20260505211601 | 55 | 175 | 6.0 | 10.0 | 0.00 | 0.05 | 0.05 | 54 | 1003.5 |
| 20260505210053 | 55 | 149 | 7.0 | 16.0 | 0.00 | 0.05 | 0.05 | 54 | 1003.3 |
| 20260505204542 | 54 | 125 | 8.0 | 14.0 | 0.00 | 0.05 | 0.05 | 56 | 1003.2 |
| 20260505203033 | 54 | 150 | 8.0 | 16.0 | 0.00 | 0.05 | 0.05 | 56 | 1003.2 |
| 20260505201532 | 54 | 159 | 10.0 | 15.0 | 0.00 | 0.05 | 0.05 | 56 | 1003.1 |
| 20260505200027 | 54 | 174 | 8.0 | 16.0 | 0.00 | 0.05 | 0.05 | 58 | 1003.0 |
| 20260505194517 | 53 | 117 | 9.0 | 20.0 | 0.00 | 0.05 | 0.05 | 58 | 1003.1 |
| 20260505193051 | 54 | 167 | 9.0 | 19.0 | 0.00 | 0.05 | 0.05 | 58 | 1003.0 |
| 20260505191608 | 54 | 155 | 10.0 | 18.0 | 0.00 | 0.05 | 0.05 | 57 | 1002.9 |
| 20260505190043 | 54 | 160 | 12.0 | 21.0 | 0.00 | 0.05 | 0.05 | 59 | 1002.8 |
| 20260505184535 | 54 | 157 | 13.0 | 20.0 | 0.00 | 0.05 | 0.05 | 58 | 1002.9 |
| 20260505183034 | 55 | 161 | 14.0 | 22.0 | 0.00 | 0.05 | 0.05 | 59 | 1002.8 |
| 20260505181525 | 54 | 122 | 11.0 | 25.0 | 0.00 | 0.05 | 0.05 | 61 | 1002.7 |
| 20260505180036 | 51 | 159 | 12.0 | 21.0 | 0.00 | 0.05 | 0.05 | 65 | 1002.6 |
| 20260505174504 | 50 | 180 | 15.0 | 21.0 | 0.00 | 0.05 | 0.05 | 66 | 1002.7 |
| 20260505173054 | 50 | 146 | 15.0 | 23.0 | 0.00 | 0.05 | 0.05 | 67 | 1002.5 |
| 20260505171549 | 49 | 159 | 14.0 | 27.0 | 0.00 | 0.05 | 0.05 | 68 | 1002.4 |
| 20260505170044 | 49 | 149 | 19.0 | 32.0 | 0.00 | 0.05 | 0.05 | 68 | 1002.2 |
| 20260505164549 | 49 | 161 | 20.0 | 29.0 | 0.00 | 0.05 | 0.05 | 70 | 1002.1 |
| 20260505163048 | 49 | 178 | 18.0 | 27.0 | 0.00 | 0.05 | 0.05 | 72 | 1002.1 |
| 20260505161538 | 49 | 142 | 17.0 | 29.0 | 0.00 | 0.05 | 0.05 | 72 | 1002.0 |
| 20260505153011 | 50 | 147 | 15.0 | 20.0 | 0.01 | 0.05 | 0.05 | 65 | 1001.7 |
| 20260505151559 | 50 | 163 | 12.0 | 22.0 | 0.01 | 0.05 | 0.05 | 65 | 1001.7 |
| 20260505124552 | 50 | 191 | 6.0 | 17.0 | 0.00 | 0.04 | 0.04 | 76 | 1000.1 |
| 20260505123046 | 50 | 159 | 8.0 | 15.0 | 0.00 | 0.04 | 0.04 | 77 | 999.7 |
| 20260505121534 | 49 | 191 | 3.0 | 6.0 | 0.00 | 0.04 | 0.04 | 76 | 999.7 |
| 20260505120035 | 49 | 174 | 3.0 | 13.0 | 0.00 | 0.04 | 0.04 | 75 | 999.8 |
| 20260505114536 | 49 | 155 | 11.0 | 16.0 | 0.01 | 0.04 | 0.04 | 76 | 999.8 |
| 20260505113036 | 49 | 196 | 7.0 | 20.0 | 0.02 | 0.04 | 0.04 | 78 | 999.5 |
| 20260505111530 | 49 | 209 | 11.0 | 17.0 | 0.03 | 0.04 | 0.04 | 79 | 999.4 |
| 20260505101514 | 52 | 188 | 4.0 | 9.0 | 0.01 | 0.01 | 0.01 | 72 | 999.8 |
| 20260505100105 | 52 | 220 | 2.0 | 6.0 | 0.00 | 0.00 | 0.00 | 71 | 999.9 |
| 20260505094556 | 52 | 218 | 2.0 | 5.0 | 0.00 | 0.00 | 0.00 | 71 | 1000.0 |
| 20260505093100 | 52 | 198 | 4.0 | 8.0 | 0.00 | 0.00 | 0.00 | 70 | 999.8 |
| 20260505091547 | 52 | 227 | 3.0 | 6.0 | 0.00 | 0.00 | 0.00 | 71 | 999.8 |
| 20260505090048 | 53 | 209 | 3.0 | 7.0 | 0.00 | 0.00 | 0.00 | 69 | 1000.0 |
| 20260505084545 | 53 | 225 | 3.0 | 6.0 | 0.00 | 0.00 | 0.00 | 69 | 1000.1 |
| 20260505083007 | 53 | 144 | 8.0 | 15.0 | 0.00 | 0.00 | 0.00 | 67 | 1000.2 |
| 20260505081506 | 53 | 181 | 10.0 | 18.0 | 0.00 | 0.00 | 0.00 | 66 | 1000.2 |
| 20260505080004 | 54 | 153 | 11.0 | 24.0 | 0.00 | 0.00 | 0.00 | 64 | 1000.3 |
| 20260505074502 | 54 | 149 | 10.0 | 24.0 | 0.00 | 0.00 | 0.00 | 61 | 1000.1 |
| 20260505073055 | 55 | 161 | 12.0 | 21.0 | 0.00 | 0.00 | 0.00 | 56 | 1000.1 |
| 20260505071551 | 55 | 148 | 15.0 | 22.0 | 0.00 | 0.00 | 0.00 | 56 | 1000.0 |
| 20260505070035 | 55 | 188 | 13.0 | 21.0 | 0.00 | 0.00 | 0.00 | 56 | 999.9 |
| 20260505064525 | 54 | 157 | 15.0 | 25.0 | 0.00 | 0.00 | 0.00 | 58 | 999.9 |
| 20260505063017 | 54 | 158 | 10.0 | 27.0 | 0.00 | 0.00 | 0.00 | 58 | 999.8 |
| 20260505061519 | 54 | 209 | 14.0 | 29.0 | 0.00 | 0.00 | 0.00 | 58 | 999.8 |
| 20260505060004 | 55 | 154 | 17.0 | 27.0 | 0.00 | 0.00 | 0.00 | 59 | 999.8 |
| 20260505054556 | 55 | 165 | 17.0 | 26.0 | 0.00 | 0.00 | 0.00 | 58 | 999.8 |
| 20260505053054 | 56 | 148 | 12.0 | 22.0 | 0.00 | 0.00 | 0.00 | 59 | 999.8 |